Weather in Lomovoye

Russia / Oryol Oblast     52°51′24″N   36°34′15″E
temp.,
°C
wind,
m/s
gust,
m/s
humid.,
%
clouds,
%
prec.,
mm/h
press.,
hPa
HPBL,
m
17 june, thu
thu1700:00+15nne37920 0.0 1018122
03:00+14ne411930 0.0 1018223
06:00+15ne512860 0.0 1019342
09:00+19ne69680 0.0 1021608
12:00+21ne56610 0.0 10221008
15:00+21ne67590 0.0 10221243
18:00+21ne59740 0.0 10221011
21:00+16ne410910 0.0 1024218
18 june, fri
fri1800:00+14ene410900 0.0 1024184
03:00+13ene49933 0.0 1025157
06:00+14ene410880 0.0 1026224
09:00+19e58730 0.0 1026531
12:00+21e57630 0.0 10271123
15:00+22e56620 0.0 10261312
18:00+21e46730 0.0 1026988
21:00+16e35880 0.0 102671
19 june, sat
sat1900:00+14ese36914 0.0 102798
03:00+13ese369320 0.0 1027106
06:00+14e379132 0.0 1027178
09:00+18ese46748 0.0 1027542
12:00+21ese55645 0.0 1026983
15:00+22ese45625 0.0 10251131
18:00+22ese35720 0.0 1024845
21:00+17ese33840 0.0 102440
20 june, sun
sun2000:00+15ese34860 0.0 102562
03:00+14ese33900 0.0 102538
06:00+15e35890 0.0 1025126
09:00+20ese45740 0.0 1024470
12:00+23ese45625 0.0 1023852
15:00+24ese455958 0.0 1022990
18:00+23e357192 0.0 1021375
21:00+19e3383100 0.0 102143
21 june, mon
mon2100:00+18e3584100 0.0 102191
03:00+16e3689100 0.0 102197
06:00+17e4988100 0.0 1021219
09:00+21e597989 0.0 1020385
12:00+25ese6766100 0.0 1020787
15:00+26ese5768100 0.0 1019777
18:00+25e487681 0.0 1019535
21:00+21e488879 0.0 1019124